Lexington, NE

7:11 PM CST on February 27, 2017 (GMT -0600)
Kelly

Weather History for KLXN - March, 2013

Change the Weather History Date:

Sunday, March 24, 2013

  Actual Average Record
Temperature  
Mean Temperature 26 °F -  
Max Temperature 36 °F 53 °F 80 °F (2004)
Min Temperature 16 °F 28 °F 6 °F (2006)
Degree Days  
Heating Degree Days 40    
Moisture  
Dew Point 15 °F    
Average Humidity 67    
Maximum Humidity 86    
Minimum Humidity 37    
Precipitation  
Precipitation 0.00 in - - ()
Sea Level Pressure  
Sea Level Pressure 30.13 in    
Wind  
Wind Speed 15 mph (NNW)    
Max Wind Speed 30 mph    
Max Gust Speed 37 mph    
Visibility 10 miles    
Events      
Averages and records for this station are not official NWS values.
T = Trace of Precipitation, MM = Missing Value Source: NWS Daily Summary

Daily Weather History Graph

Daily Weather History Graph

Search for Another Location

Airport or City:

Trip Planner

Search our weather history database for the weather conditions in past years. The results will help you decide how hot, cold, wet, or windy it might be!

Date:

Astronomy

Mar. 24, 2013 Rise Set
Actual Time 7:35 AM CDT 7:55 PM CDT
Civil Twilight 7:07 AM CDT 8:23 PM CDT
Nautical Twilight 6:35 AM CDT 8:55 PM CDT
Astronomical Twilight 6:02 AM CDT 9:28 PM CDT
Moon 5:25 PM CDT (3/24) 5:47 AM CDT (3/24)
Length of Visible Light 13h 15m
Length of Day
12h 20m
Waxing Gibbous, 92% of the Moon is Illuminated
Mar 24
Waxing Gibbous
Mar 27
Full
Apr 2
Last Quarter
Apr 10
New
Apr 18
First Quarter

Hourly Weather History & Observations

Time (CDT) Temp. Windchill Dew Point Humidity Pressure Visibility Wind Dir Wind Speed Gust Speed Precip Events Conditions
12:15 AM 24.8 °F 12.4 °F 18.9 °F 78% 30.15 in 10.0 mi North 15.0 mph - N/A   Overcast
12:35 AM 24.8 °F 13.4 °F 18.5 °F 77% 30.15 in 10.0 mi North 12.7 mph - N/A   Overcast
12:55 AM 24.6 °F 12.2 °F 18.1 °F 76% 30.14 in 10.0 mi North 15.0 mph 23.0 mph N/A   Overcast
1:15 AM 23.9 °F 10.3 °F 17.6 °F 77% 30.15 in 10.0 mi North 17.3 mph 21.9 mph N/A   Overcast
1:35 AM 23.7 °F 9.7 °F 17.2 °F 76% 30.15 in 10.0 mi North 18.4 mph 24.2 mph N/A   Overcast
1:55 AM 23.0 °F 11.7 °F 17.2 °F 79% 30.15 in 10.0 mi North 11.5 mph - N/A   Mostly Cloudy
2:35 AM 22.8 °F 9.9 °F 16.5 °F 77% 30.15 in 10.0 mi North 15.0 mph - N/A   Mostly Cloudy
2:55 AM 22.5 °F 11.1 °F 15.8 °F 76% 30.15 in 10.0 mi North 11.5 mph - N/A   Scattered Clouds
3:15 AM 22.1 °F 11.3 °F 15.6 °F 76% 30.14 in 10.0 mi North 10.4 mph 19.6 mph N/A   Clear
3:35 AM 22.1 °F 12.0 °F 15.8 °F 77% 30.15 in 10.0 mi NNW 9.2 mph - N/A   Clear
3:55 AM 21.6 °F 12.1 °F 16.0 °F 79% 30.14 in 10.0 mi NNW 8.1 mph - N/A   Clear
4:15 AM 21.4 °F 9.7 °F 15.8 °F 79% 30.13 in 10.0 mi NNW 11.5 mph - N/A   Clear
4:35 AM 21.2 °F 8.3 °F 15.4 °F 78% 30.13 in 10.0 mi NNW 13.8 mph - N/A   Clear
4:55 AM 20.8 °F 7.3 °F 14.9 °F 78% 30.13 in 10.0 mi NNW 15.0 mph - N/A   Clear
5:15 AM 20.1 °F 8.1 °F 14.4 °F 78% 30.13 in 10.0 mi NNW 11.5 mph - N/A   Clear
5:35 AM 19.4 °F 7.9 °F 14.0 °F 80% 30.13 in 10.0 mi NNW 10.4 mph - N/A   Clear
5:55 AM 18.5 °F 9.3 °F 13.8 °F 82% 30.13 in 10.0 mi NW 6.9 mph - N/A   Clear
6:15 AM 17.6 °F 7.3 °F 13.6 °F 84% 30.13 in 10.0 mi NW 8.1 mph - N/A   Clear
6:35 AM 17.2 °F 6.8 °F 13.5 °F 85% 30.13 in 10.0 mi NW 8.1 mph - N/A   Clear
6:55 AM 16.7 °F 5.3 °F 13.1 °F 86% 30.14 in 10.0 mi NW 9.2 mph - N/A   Clear
7:15 AM 16.7 °F 5.3 °F 13.1 °F 86% 30.14 in 10.0 mi NW 9.2 mph - N/A   Clear
7:35 AM 16.7 °F 6.2 °F 12.7 °F 84% 30.14 in 10.0 mi NW 8.1 mph - N/A   Clear
7:55 AM 16.3 °F 5.7 °F 12.2 °F 84% 30.14 in 10.0 mi NW 8.1 mph - N/A   Clear
8:15 AM 16.7 °F 6.2 °F 12.7 °F 84% 30.15 in 10.0 mi NW 8.1 mph - N/A   Clear
8:35 AM 18.1 °F 7.1 °F 12.9 °F 80% 30.15 in 10.0 mi NW 9.2 mph - N/A   Clear
8:55 AM 19.4 °F 7.9 °F 13.1 °F 76% 30.15 in 10.0 mi NNW 10.4 mph - N/A   Clear
9:15 AM 20.3 °F 7.2 °F 12.9 °F 73% 30.15 in 10.0 mi NNW 13.8 mph - N/A   Clear
9:35 AM 21.0 °F 9.3 °F 13.8 °F 74% 30.15 in 10.0 mi NNW 11.5 mph - N/A   Clear
9:55 AM 22.5 °F 8.0 °F 13.1 °F 67% 30.15 in 10.0 mi NNW 18.4 mph 23.0 mph N/A   Clear
10:15 AM 23.0 °F 9.2 °F 13.3 °F 66% 30.14 in 10.0 mi North 17.3 mph 24.2 mph N/A   Clear
10:35 AM 23.7 °F 9.3 °F 13.6 °F 65% 30.15 in 10.0 mi NNW 19.6 mph - N/A   Clear
10:55 AM 24.8 °F 11.1 °F 14.9 °F 66% 30.14 in 10.0 mi North 18.4 mph 26.5 mph N/A   Clear
11:15 AM 26.1 °F 13.1 °F 16.0 °F 66% 30.14 in 10.0 mi North 17.3 mph 20.7 mph N/A   Clear
11:35 AM 26.6 °F 15.2 °F 16.3 °F 65% 30.14 in 10.0 mi NNW 13.8 mph 20.7 mph N/A   Clear
11:55 AM 28.4 °F 16.6 °F 18.1 °F 65% 30.14 in 10.0 mi NNW 16.1 mph 24.2 mph N/A   Scattered Clouds
12:15 PM 29.1 °F 17.1 °F 18.5 °F 65% 30.13 in 10.0 mi NNW 17.3 mph - N/A   Scattered Clouds
12:35 PM 30.7 °F 18.1 °F 18.7 °F 61% 30.13 in 10.0 mi NNW 20.7 mph 24.2 mph N/A   Scattered Clouds
12:55 PM 30.7 °F 17.5 °F 18.1 °F 60% 30.13 in 10.0 mi NNW 23.0 mph 29.9 mph N/A   Mostly Cloudy
1:15 PM 32.0 °F 20.1 °F 19.0 °F 59% 30.12 in 10.0 mi NW 19.6 mph 27.6 mph N/A   Mostly Cloudy
1:35 PM 32.5 °F 20.2 °F 18.7 °F 57% 30.12 in 10.0 mi NNW 21.9 mph - N/A   Mostly Cloudy
1:55 PM 31.8 °F 19.3 °F 18.0 °F 57% 30.11 in 10.0 mi NNW 21.9 mph 28.8 mph N/A   Overcast
2:15 PM 33.4 °F 20.3 °F 16.3 °F 50% 30.11 in 10.0 mi NW 26.5 mph 29.9 mph N/A   Scattered Clouds
2:35 PM 32.0 °F 19.2 °F 15.8 °F 51% 30.10 in 10.0 mi NNW 23.0 mph 33.4 mph N/A   Mostly Cloudy
2:55 PM 32.4 °F 20.0 °F 16.0 °F 51% 30.10 in 10.0 mi NNW 21.9 mph 29.9 mph N/A   Overcast
3:15 PM 32.9 °F 21.0 °F 16.2 °F 50% 30.09 in 10.0 mi NNW 20.7 mph 28.8 mph N/A   Overcast
3:35 PM 32.2 °F 19.4 °F 14.2 °F 48% 30.08 in 10.0 mi NNW 23.0 mph 29.9 mph N/A   Overcast
3:55 PM 33.3 °F 20.9 °F 14.4 °F 46% 30.07 in 10.0 mi NNW 23.0 mph 28.8 mph N/A   Overcast
4:15 PM 35.1 °F 22.7 °F 13.6 °F 41% 30.07 in 10.0 mi NNW 25.3 mph 32.2 mph N/A   Overcast
4:35 PM 33.6 °F 19.8 °F 13.8 °F 44% 30.07 in 10.0 mi NNW 29.9 mph 34.5 mph N/A   Mostly Cloudy
4:55 PM 33.1 °F 20.1 °F 13.1 °F 44% 30.07 in 10.0 mi NW 25.3 mph 31.1 mph N/A   Mostly Cloudy
5:15 PM 35.4 °F 23.0 °F 11.5 °F 37% 30.08 in 10.0 mi NW 26.5 mph 36.8 mph N/A   Scattered Clouds
5:35 PM 34.0 °F 21.3 °F 11.1 °F 39% 30.08 in 10.0 mi NW 25.3 mph 34.5 mph N/A   Mostly Cloudy
5:55 PM 34.5 °F 22.5 °F 11.1 °F 38% 30.08 in 10.0 mi NNW 23.0 mph 29.9 mph N/A   Mostly Cloudy
6:15 PM 32.2 °F 20.0 °F 10.4 °F 40% 30.08 in 10.0 mi NNW 20.7 mph 31.1 mph N/A   Scattered Clouds
6:35 PM 32.0 °F 18.9 °F 9.1 °F 38% 30.09 in 10.0 mi NNW 24.2 mph 31.1 mph N/A   Scattered Clouds
6:55 PM 32.0 °F 19.2 °F 8.6 °F 38% 30.09 in 10.0 mi NNW 23.0 mph 28.8 mph N/A   Clear
7:15 PM 30.2 °F 17.1 °F 9.9 °F 43% 30.11 in 10.0 mi NNW 21.9 mph 27.6 mph N/A   Clear
7:35 PM 27.3 °F 14.8 °F 16.3 °F 63% 30.12 in 10.0 mi North 17.3 mph 23.0 mph N/A   Clear
7:55 PM 26.8 °F 14.5 °F 15.3 °F 62% 30.13 in 10.0 mi North 16.1 mph 26.5 mph N/A   Scattered Clouds
8:15 PM 25.7 °F 11.9 °F 14.2 °F 62% 30.13 in 10.0 mi North 19.6 mph - N/A   Clear
8:35 PM 25.3 °F 13.1 °F 13.1 °F 60% 30.14 in 10.0 mi North 15.0 mph - N/A   Clear
8:55 PM 24.1 °F 12.0 °F 15.3 °F 69% 30.15 in 10.0 mi North 13.8 mph - N/A   Clear
9:15 PM 23.5 °F 12.4 °F 15.6 °F 72% 30.16 in 10.0 mi NNW 11.5 mph - N/A   Clear
9:35 PM 23.0 °F 11.1 °F 16.3 °F 76% 30.17 in 10.0 mi NNW 12.7 mph - N/A   Clear
9:55 PM 23.0 °F 11.7 °F 16.3 °F 76% 30.17 in 10.0 mi NNW 11.5 mph - N/A   Clear
10:15 PM 22.1 °F 10.6 °F 16.5 °F 79% 30.18 in 10.0 mi NW 11.5 mph - N/A   Clear
10:35 PM 22.1 °F 10.0 °F 15.8 °F 77% 30.18 in 10.0 mi NNW 12.7 mph - N/A   Clear
10:55 PM 22.1 °F 10.0 °F 15.8 °F 77% 30.19 in 10.0 mi NW 12.7 mph - N/A   Clear
11:15 PM 21.2 °F 10.1 °F 16.0 °F 80% 30.19 in 10.0 mi NW 10.4 mph - N/A   Clear
11:55 PM 21.0 °F 9.3 °F 16.2 °F 81% 30.20 in 10.0 mi NW 11.5 mph - N/A   Clear